[[{"header":{"parameterUnit":"m.s-1","parameterCategory":2,"la1":30.2991,"la2":30.254,"lo1":-89.0895,"lo2":-89.0444,"dy":0.0017,"dx":0.0017,"nx":28,"ny":28,"refTime":"2024-05-05T03:00:00:Z","depth":"0","parameterNumber":2,"parameterNumberName":"U-component_of_CURRENTS"},"data":[0,0,0,0,0,0,0,0,0,0,0,0,0,0,0,0,0,0,0,0,0,0,0,0,0,0,0,0,0,0,0,0,0,0,0,0,0,0,0,0,0,0,0,0,0,0,0,0,0,0,0,0,0,0,0,0,0,0,0.1349,0.135,0,0.1375,0.1375,0.1376,0.1369,0.1368,0.1368,0.1367,0.1376,0.1376,0.1377,0,0,0,0,0,0,0,0,0,0,0,0,0,0.1284,0.1285,0.1349,0.135,0.135,0.1375,0.1375,0.1376,0.1369,0.1368,0.1368,0.1367,0.1375,0.1376,0.1377,0,0,0,0,0,0,0,0,0,0,0,0,0,0.1311,0.1286,0.1349,0.135,0.1351,0.1375,0.1375,0.1376,0.1369,0.1368,0.1367,0.1367,0.1375,0.1376,0.1377,0.1396,0,0,0.138,0.138,0,0,0,0,0,0,0,0,0.1309,0.1313,0.135,0.135,0.1351,0.1369,0.1355,0.1382,0.1369,0.1361,0.1367,0.1367,0.1373,0.1374,0.1379,0.1396,0.1397,0.138,0.138,0.1381,0.1381,0,0,0,0,0,0,0,0.1307,0.1312,0.1358,0.135,0.1351,0.1346,0.1349,0.136,0.1369,0.1362,0.1361,0.1366,0.1373,0.1378,0.1379,0.1397,0.138,0.1381,0.1381,0.1382,0.1449,0.1451,0,0,0,0,0,0,0.1307,0.131,0.1358,0.1359,0.1329,0.1348,0.1351,0.1363,0.1369,0.137,0.1366,0.1366,0.1377,0.1378,0.1379,0.1414,0.1381,0.1382,0.1382,0.1448,0.145,0.1451,0,0,0,0,0,0,0.1306,0.1312,0.1357,0.1335,0.1341,0.135,0.1363,0.1364,0.1372,0.1373,0.1374,0.1374,0.1376,0.1378,0.14,0.1413,0.1382,0.1383,0.1447,0.1449,0.145,0.1475,0,0,0,0,0,0,0.1304,0.1311,0.1323,0.1336,0.1342,0.138,0.1364,0.1365,0.1376,0.1375,0.138,0.138,0.1376,0.1399,0.1401,0.1414,0.1384,0.1445,0.1448,0.145,0.1472,0.1477,0.1481,0,0,0,0,0,0.1302,0.1321,0.1323,0.1329,0.1357,0.1381,0.1384,0.1387,0.1377,0.1389,0.1393,0.138,0.1415,0.1401,0.1403,0.1416,0.1444,0.1447,0.145,0.147,0.1476,0.1481,0,0,0,0,0,0,0.1304,0.1323,0.1325,0.1351,0.1368,0.138,0.1392,0.1392,0.1404,0.1402,0.1397,0.1398,0.1421,0.1422,0.1406,0.1445,0.1427,0.1431,0.1442,0.1448,0.1452,0.1462,0.1385,0,0,0,0,0,0.1309,0.1326,0.1344,0.1366,0.1375,0.1384,0.1394,0.1397,0.1409,0.1413,0.1415,0.1422,0.1435,0.1443,0.1453,0.1477,0.1504,0.1489,0.1493,0.1497,0.1508,0.1558,0.1568,0.146,0.146,0.146,0,0,0.1316,0.1329,0.1339,0.1367,0.1379,0.1399,0.1389,0.1409,0.1425,0.1413,0.1435,0.1437,0.1445,0.147,0.148,0.1472,0.1546,0.15,0.1503,0.1513,0.1562,0.1572,0.1581,0.1462,0.1462,0.1461,0,0,0.1336,0.1351,0.137,0.1387,0.1409,0.1415,0.1422,0.1439,0.1446,0.1471,0.1464,0.148,0.1497,0.1508,0.1514,0.1554,0.1567,0.1553,0.1584,0.1632,0.1642,0.165,0.1717,0.1731,0.1556,0.1557,0.1557,0,0.1342,0.1371,0.138,0.1404,0.1419,0.1423,0.1447,0.146,0.148,0.1494,0.1482,0.1519,0.1518,0.1555,0.1564,0.1563,0.16,0.1559,0.1638,0.1647,0.1655,0.1722,0.1737,0.1558,0.1558,0.1558,0.1558,0,0.1376,0.1399,0.1414,0.1442,0.1461,0.1483,0.1501,0.1518,0.1522,0.1533,0.1568,0.1575,0.16,0.1598,0.1591,0.1646,0.1658,0.1635,0.1622,0.1667,0.1735,0.175,0.156,0.156,0.1559,0.1559,0,0,0.1384,0.1427,0.1433,0.145,0.1482,0.15,0.1532,0.1564,0.1591,0.1604,0.1644,0.1658,0.1662,0.1672,0.1668,0.1701,0.1787,0.1694,0.1696,0.1759,0.1918,0.1949,0.1968,0.1777,0.178,0.1782,0.1949,0,0.1406,0.1449,0.1468,0.1509,0.153,0.1549,0.1579,0.1608,0.1633,0.1673,0.1685,0.1719,0.1691,0.1709,0.174,0.1774,0.1827,0.1746,0.1868,0.1872,0.1891,0.1986,0.1937,0.2083,0.1964,0.1967,0.1968,0,0.1429,0.1456,0.1497,0.1539,0.1552,0.1575,0.1626,0.1656,0.171,0.1734,0.1773,0.1787,0.1843,0.1806,0.191,0.1861,0.1901,0.1923,0.1929,0.196,0.1931,0.2016,0.2116,0.2067,0.1992,0.199,0.1989,0,0.142,0.1473,0.1503,0.1518,0.1568,0.1591,0.1618,0.1672,0.1709,0.178,0.1821,0.1879,0.1926,0.1974,0.2028,0.1978,0.2149,0.2085,0.2157,0.216,0.2145,0.2143,0.2208,0.2174,0.2173,0.2173,0.2173,0,0.143,0.1453,0.15,0.1516,0.1555,0.1592,0.1641,0.1681,0.1751,0.1812,0.1851,0.1927,0.197,0.2063,0.2087,0.2199,0.221,0.22,0.2216,0.2154,0.2151,0.2127,0.2092,0.2179,0.2178,0.2177,0.2176,0,0.1413,0.1443,0.1478,0.1533,0.1549,0.1577,0.1644,0.1686,0.1757,0.1845,0.1873,0.1991,0.2128,0.2188,0.2298,0.2295,0.2329,0.241,0.235,0.2355,0.2339,0.2308,0.2305,0.223,0.2513,0.2515,0.2517,0,0.1406,0.1422,0.1479,0.1497,0.152,0.1565,0.1597,0.1675,0.1729,0.1892,0.1939,0.2104,0.2212,0.2405,0.2464,0.256,0.2441,0.2544,0.2427,0.2374,0.2349,0.2205,0.2129,0.2427,0.2427,0.2428,0.2428,0,0.1391,0.141,0.1438,0.1477,0.151,0.1548,0.1605,0.1648,0.1759,0.1848,0.1999,0.2103,0.2331,0.2435,0.2575,0.2603,0.2428,0.2559,0.2514,0.2316,0.2153,0.2076,0.2292,0.2434,0.2433,0.2433,0.2433,0.2432,0.1371,0.1385,0.1418,0.1449,0.1483,0.1515,0.153,0.1612,0.1694,0.1824,0.1983,0.2129,0.2342,0.2544,0.2566,0.2586,0.2506,0.2505,0.2486,0.2355,0.2231,0.248,0.2621,0.2622,0.2622,0.2622,0.2623,0,0.1338,0.1358,0.1387,0.1414,0.1424,0.1463,0.152,0.1534,0.1606,0.179,0.1918,0.2157,0.2298,0.2439,0.2576,0.2522,0.2341,0.245,0.2221,0.2158,0.2413,0.2356,0.2434,0.2434,0.2434,0.2434,0.2434,0.2434,0.1321,0.1327,0.1342,0.1341,0.1359,0.1353,0.1371,0.1414,0.1523,0.1686,0.1843,0.2013,0.2287,0.2492,0.2517,0.2451,0.2237,0.2166,0.2112,0.2294,0.2295,0.2296,0.2234,0.2285,0.2285,0.1748,0.1745,0.1742]},{"header":{"parameterUnit":"m.s-1","parameterCategory":2,"la1":30.2991,"la2":30.254,"lo1":-89.0895,"lo2":-89.0444,"dy":0.0017,"dx":0.0017,"nx":28,"ny":28,"refTime":"2024-05-05T03:00:00:Z","depth":"0","parameterNumber":3,"parameterNumberName":"V-component_of_CURRENTS"},"data":[0,0,0,0,0,0,0,0,0,0,0,0,0,0,0,0,0,0,0,0,0,0,0,0,0,0,0,0,0,0,0,0,0,0,0,0,0,0,0,0,0,0,0,0,0,0,0,0,0,0,0,0,0,0,0,0,0,0,-0.009,-0.009,0,-0.0124,-0.0125,-0.0125,-0.0151,-0.0151,-0.0151,-0.0151,-0.0185,-0.0185,-0.0186,0,0,0,0,0,0,0,0,0,0,0,0,0,-0.0047,-0.0048,-0.0089,-0.009,-0.009,-0.0124,-0.0125,-0.0125,-0.0151,-0.0151,-0.0151,-0.0152,-0.0184,-0.0185,-0.0186,0,0,0,0,0,0,0,0,0,0,0,0,0,-0.0072,-0.0048,-0.0089,-0.0108,-0.011,-0.0124,-0.0125,-0.0125,-0.0151,-0.0151,-0.0151,-0.0152,-0.0184,-0.0185,-0.0186,-0.0184,0,0,-0.0189,-0.0189,0,0,0,0,0,0,0,0,-0.007,-0.0073,-0.0104,-0.0106,-0.0109,-0.0134,-0.0122,-0.0145,-0.015,-0.0134,-0.0151,-0.0152,-0.0168,-0.017,-0.0175,-0.0186,-0.0187,-0.0189,-0.019,-0.019,-0.019,0,0,0,0,0,0,0,-0.0069,-0.0072,-0.0103,-0.0105,-0.0107,-0.0115,-0.0119,-0.0127,-0.0148,-0.0136,-0.0138,-0.0142,-0.0169,-0.0174,-0.0176,-0.0188,-0.0189,-0.019,-0.0191,-0.0191,-0.02,-0.0199,0,0,0,0,0,0,-0.0065,-0.007,-0.0102,-0.0104,-0.0091,-0.0115,-0.012,-0.0125,-0.0148,-0.0152,-0.0142,-0.0144,-0.0172,-0.0175,-0.0177,-0.0175,-0.019,-0.0191,-0.0192,-0.02,-0.02,-0.0199,0,0,0,0,0,0,-0.0064,-0.0067,-0.01,-0.0088,-0.0093,-0.0116,-0.0122,-0.0126,-0.013,-0.0153,-0.0157,-0.0142,-0.0173,-0.0176,-0.0183,-0.0177,-0.0191,-0.0192,-0.02,-0.02,-0.0199,-0.0172,0,0,0,0,0,0,-0.0062,-0.0067,-0.0068,-0.0088,-0.0094,-0.0103,-0.0121,-0.0126,-0.0132,-0.0134,-0.0154,-0.0158,-0.0173,-0.0182,-0.0184,-0.0179,-0.0193,-0.0201,-0.02,-0.02,-0.0174,-0.0171,-0.0169,0,0,0,0,0,-0.0061,-0.0058,-0.0068,-0.0071,-0.0095,-0.0102,-0.0105,-0.0123,-0.0132,-0.0128,-0.0145,-0.0157,-0.0179,-0.0182,-0.0185,-0.018,-0.0201,-0.02,-0.02,-0.0175,-0.0171,-0.0169,0,0,0,0,0,0,-0.0038,-0.0061,-0.0072,-0.0076,-0.0086,-0.0107,-0.0107,-0.0118,-0.0129,-0.0132,-0.0154,-0.0158,-0.0163,-0.0173,-0.0175,-0.018,-0.0192,-0.0191,-0.0172,-0.0169,-0.0166,-0.0156,-0.0194,0,0,0,0,0,-0.0034,-0.004,-0.006,-0.0062,-0.0066,-0.0085,-0.0091,-0.0102,-0.0116,-0.0121,-0.0135,-0.015,-0.0162,-0.0166,-0.0179,-0.0178,-0.0187,-0.0176,-0.0174,-0.0172,-0.0165,-0.0177,-0.0175,-0.0197,-0.0197,-0.0197,0,0,-0.0027,-0.004,-0.0044,-0.0058,-0.0068,-0.0069,-0.0089,-0.0094,-0.0094,-0.0122,-0.0124,-0.0142,-0.0161,-0.0165,-0.0167,-0.0172,-0.0169,-0.0171,-0.0169,-0.0163,-0.0176,-0.0174,-0.0172,-0.0196,-0.0196,-0.0196,0,0,-0.0011,-0.0025,-0.0023,-0.003,-0.0043,-0.0054,-0.0053,-0.007,-0.0077,-0.0083,-0.0104,-0.0117,-0.0132,-0.0145,-0.0154,-0.0142,-0.0157,-0.0145,-0.0122,-0.0134,-0.0132,-0.0131,-0.0136,-0.0135,-0.0142,-0.0141,-0.0141,0,0.0,-0.0002,-0.0022,-0.0019,-0.0021,-0.0044,-0.0037,-0.0047,-0.0064,-0.0063,-0.008,-0.0104,-0.0123,-0.0127,-0.0127,-0.0136,-0.0143,-0.0133,-0.013,-0.0129,-0.0128,-0.0134,-0.0133,-0.014,-0.014,-0.014,-0.0141,0,0.0017,0.0016,0.002,0.0013,0.001,0.0013,-0.0003,-0.0003,-0.0018,-0.003,-0.0038,-0.0068,-0.008,-0.0091,-0.0108,-0.0107,-0.0113,-0.0128,-0.0138,-0.0124,-0.0131,-0.0131,-0.0138,-0.0139,-0.0139,-0.0139,0,0,0.0043,0.0034,0.0035,0.0043,0.0028,0.0033,0.0033,0.0032,0.0045,0.0014,0.0024,-0.0012,-0.0029,-0.0039,-0.0063,-0.0077,-0.0081,-0.0096,-0.0097,-0.01,-0.0101,-0.0103,-0.0103,-0.0096,-0.0096,-0.0096,-0.0107,0,0.0065,0.008,0.0066,0.0086,0.0096,0.0079,0.0088,0.0083,0.0074,0.0079,0.0039,0.0036,-0.0009,-0.0011,-0.0034,-0.0064,-0.008,-0.0076,-0.0114,-0.0115,-0.0118,-0.0103,-0.01,-0.0109,-0.0107,-0.0107,-0.0107,0,0.0088,0.0097,0.0115,0.0134,0.0138,0.0144,0.0164,0.0167,0.016,0.0153,0.0132,0.0106,0.008,0.0039,-0.0013,-0.0007,-0.0051,-0.0082,-0.0084,-0.0094,-0.0117,-0.0123,-0.011,-0.0245,-0.0107,-0.0107,-0.0107,0,0.0122,0.0135,0.0154,0.0156,0.0168,0.018,0.0186,0.0189,0.0211,0.0199,0.0217,0.017,0.0162,0.0095,0.0028,0.0009,-0.0025,-0.006,-0.0106,-0.0106,-0.0114,-0.0116,-0.0235,-0.0101,-0.0101,-0.0101,-0.0101,0,0.0152,0.0172,0.0173,0.0185,0.0226,0.0216,0.0258,0.026,0.0275,0.0321,0.0257,0.029,0.0177,0.0144,0.006,-0.0011,-0.0002,-0.0094,-0.0108,-0.0104,-0.0105,-0.0232,-0.0307,-0.0101,-0.0101,-0.0101,-0.0101,0,0.0189,0.0183,0.0214,0.023,0.0242,0.0269,0.0308,0.0348,0.0348,0.0406,0.0407,0.0385,0.0347,0.0238,0.0146,0.0048,-0.0105,-0.0062,-0.0047,-0.0058,-0.0241,-0.0313,-0.0435,-0.0492,-0.012,-0.012,-0.012,0,0.0211,0.0226,0.0252,0.0277,0.0285,0.0324,0.0363,0.0379,0.0428,0.0483,0.0525,0.0503,0.0517,0.0371,0.0192,0.0042,-0.0088,-0.0068,-0.0114,-0.0246,-0.0337,-0.0398,-0.0442,-0.0114,-0.0114,-0.0114,-0.0114,0,0.0259,0.0259,0.0284,0.0332,0.0371,0.0427,0.0482,0.0532,0.0573,0.0633,0.072,0.0737,0.0602,0.0455,0.0227,0.0113,-0.0172,-0.0073,-0.0217,-0.0345,-0.0412,-0.0474,-0.0113,-0.0115,-0.0115,-0.0115,-0.0115,-0.0115,0.0296,0.0321,0.0346,0.0395,0.0447,0.0523,0.0576,0.0654,0.0747,0.0854,0.0873,0.0935,0.0695,0.0391,0.0195,-0.0167,-0.0176,-0.0285,-0.0361,-0.041,-0.0475,-0.0109,-0.0124,-0.0124,-0.0124,-0.0124,-0.0124,0,0.034,0.0364,0.0412,0.0469,0.0535,0.0553,0.0657,0.0719,0.0841,0.0973,0.1057,0.1011,0.0693,0.0366,-0.0122,-0.0406,-0.0518,-0.056,-0.0662,-0.0692,-0.037,-0.0381,-0.0443,-0.0443,-0.0442,-0.0442,-0.0442,-0.0442,0.0365,0.0409,0.0428,0.0531,0.0579,0.0671,0.0731,0.0832,0.0938,0.1102,0.1186,0.1232,0.1024,0.009,-0.0554,-0.0708,-0.0906,-0.0955,-0.1055,-0.0859,-0.084,-0.0821,-0.0851,-0.101,-0.1011,-0.1344,-0.1348,-0.135]}],[{"header":{"parameterUnit":"m.s-1","parameterCategory":2,"la1":30.2991,"la2":30.254,"lo1":-89.0895,"lo2":-89.0444,"dy":0.0017,"dx":0.0017,"nx":28,"ny":28,"refTime":"2024-05-05T03:00:00:Z","depth":"2","parameterNumber":2,"parameterNumberName":"U-component_of_CURRENTS"},"data":[0,0,0,0,0,0,0,0,0,0,0,0,0,0,0,0,0,0,0,0,0,0,0,0,0,0,0,0,0,0,0,0,0,0,0,0,0,0,0,0,0,0,0,0,0,0,0,0,0,0,0,0,0,0,0,0,0,0,0.1439,0.144,0,0.1464,0.1465,0.1465,0.1456,0.1455,0.1455,0.1454,0.1463,0.1463,0.1464,0,0,0,0,0,0,0,0,0,0,0,0,0,0.1377,0.1378,0.1439,0.144,0.144,0.1464,0.1465,0.1465,0.1456,0.1455,0.1454,0.1454,0.1462,0.1463,0.1464,0,0,0,0,0,0,0,0,0,0,0,0,0,0.1403,0.1378,0.1439,0.1439,0.1439,0.1464,0.1465,0.1465,0.1456,0.1455,0.1454,0.1453,0.1462,0.1463,0.1464,0.1487,0,0,0.1468,0.1468,0,0,0,0,0,0,0,0,0.1401,0.1405,0.1438,0.1439,0.1439,0.1457,0.1446,0.1472,0.1456,0.1449,0.1454,0.1453,0.146,0.1461,0.1467,0.1487,0.1487,0.1468,0.1468,0.1469,0.1469,0,0,0,0,0,0,0,0.1399,0.1404,0.1449,0.1439,0.1439,0.1435,0.1438,0.1451,0.1458,0.1449,0.1449,0.1453,0.146,0.1466,0.1467,0.1487,0.1468,0.1469,0.1469,0.147,0.1541,0.1542,0,0,0,0,0,0,0.1399,0.1402,0.1448,0.1449,0.1418,0.1437,0.144,0.1451,0.1458,0.1459,0.1453,0.1452,0.1465,0.1466,0.1468,0.1501,0.1469,0.147,0.147,0.154,0.1541,0.1543,0,0,0,0,0,0,0.1398,0.1403,0.1447,0.1426,0.1431,0.1439,0.1452,0.1452,0.1458,0.1461,0.1461,0.1459,0.1464,0.1466,0.1489,0.1501,0.147,0.1471,0.1538,0.154,0.1542,0.1564,0,0,0,0,0,0,0.1396,0.1403,0.1413,0.1427,0.1433,0.1468,0.1452,0.1453,0.1462,0.1461,0.1466,0.1466,0.1464,0.1487,0.149,0.1502,0.1472,0.1537,0.1539,0.1541,0.1562,0.1566,0.157,0,0,0,0,0,0.1394,0.1412,0.1413,0.1419,0.1446,0.1469,0.1472,0.1474,0.1463,0.1474,0.1479,0.1466,0.1504,0.1489,0.1492,0.1505,0.1536,0.1538,0.1541,0.156,0.1566,0.157,0,0,0,0,0,0,0.1395,0.1413,0.1415,0.1439,0.1455,0.1468,0.148,0.1478,0.1491,0.1489,0.1484,0.1485,0.1508,0.151,0.1494,0.1534,0.1517,0.152,0.153,0.1536,0.154,0.1548,0.1473,0,0,0,0,0,0.14,0.1416,0.1433,0.1454,0.1462,0.1471,0.148,0.1483,0.1494,0.1499,0.1501,0.1509,0.1523,0.1531,0.1543,0.1568,0.1593,0.1579,0.1583,0.1587,0.1597,0.1645,0.1655,0.1552,0.1552,0.1552,0,0,0.1406,0.1419,0.1428,0.1455,0.1466,0.1486,0.1475,0.1494,0.151,0.1499,0.152,0.1523,0.1534,0.1559,0.157,0.1561,0.1634,0.159,0.1593,0.1602,0.1649,0.1659,0.1668,0.1554,0.1553,0.1553,0,0,0.1426,0.1439,0.1457,0.1473,0.1494,0.1501,0.1507,0.1523,0.1529,0.1554,0.1548,0.1565,0.1583,0.1595,0.1603,0.1643,0.1653,0.1642,0.1672,0.1718,0.1727,0.1735,0.1796,0.181,0.1646,0.1646,0.1646,0,0.1431,0.1458,0.1468,0.149,0.1504,0.1508,0.1531,0.1543,0.1563,0.1576,0.1564,0.1603,0.1604,0.1642,0.1651,0.1652,0.1686,0.1647,0.1724,0.1732,0.174,0.1801,0.1815,0.1647,0.1647,0.1647,0.1647,0,0.1464,0.1486,0.15,0.1526,0.1544,0.1566,0.1583,0.1599,0.1602,0.1614,0.1648,0.1657,0.1683,0.1682,0.1677,0.1731,0.1741,0.1721,0.1708,0.1752,0.1813,0.1827,0.1649,0.1649,0.1648,0.1648,0,0,0.1472,0.1512,0.1518,0.1533,0.1564,0.1581,0.1612,0.1643,0.1668,0.1682,0.1721,0.1737,0.1742,0.1752,0.175,0.1783,0.1864,0.1776,0.1778,0.1834,0.1987,0.1968,0.1982,0.1857,0.1859,0.1861,0.2014,0,0.1492,0.1534,0.1552,0.159,0.161,0.1627,0.1656,0.1685,0.1709,0.1747,0.1762,0.1796,0.177,0.1787,0.1818,0.1851,0.1901,0.1826,0.194,0.1944,0.1918,0.1997,0.1833,0.1953,0.2028,0.203,0.2032,0,0.1514,0.154,0.1578,0.1618,0.1629,0.1651,0.1699,0.1727,0.178,0.1804,0.1843,0.1858,0.1914,0.188,0.1978,0.1933,0.197,0.1991,0.1997,0.1981,0.1951,0.1919,0.1976,0.2056,0.2054,0.2052,0.2051,0,0.1505,0.1555,0.1582,0.1597,0.1644,0.1664,0.1689,0.1741,0.1777,0.1846,0.1886,0.1944,0.199,0.2036,0.2086,0.2042,0.2199,0.2144,0.2169,0.2169,0.2053,0.2038,0.2228,0.2228,0.2228,0.2227,0.2227,0,0.1513,0.1535,0.1578,0.1593,0.1628,0.1663,0.1708,0.1746,0.1814,0.1873,0.1914,0.1987,0.2032,0.2118,0.214,0.2219,0.2255,0.2203,0.2214,0.2058,0.2043,0.2138,0.2126,0.2233,0.2232,0.2231,0.223,0,0.1496,0.1524,0.1556,0.1607,0.1621,0.1646,0.171,0.1749,0.1818,0.1903,0.1931,0.2048,0.2167,0.2222,0.2324,0.2302,0.2365,0.2384,0.2209,0.2195,0.2289,0.2276,0.2424,0.2425,0.2425,0.2426,0.2426,0,0.1488,0.1503,0.1554,0.157,0.1591,0.1631,0.1662,0.1737,0.1788,0.1946,0.1992,0.2142,0.223,0.2382,0.2399,0.246,0.2456,0.2316,0.2188,0.2318,0.2313,0.2299,0.2286,0.2055,0.2052,0.205,0.2049,0,0.1474,0.149,0.1516,0.1548,0.1578,0.1613,0.1667,0.1708,0.1815,0.1897,0.2035,0.2122,0.2291,0.2289,0.2368,0.2365,0.2282,0.2274,0.2482,0.2022,0.198,0.1971,0.1968,0.2029,0.2031,0.2033,0.2034,0.2034,0.1454,0.1466,0.1495,0.152,0.155,0.1578,0.1591,0.1665,0.1738,0.1837,0.1983,0.2051,0.213,0.2168,0.2148,0.2128,0.2266,0.2132,0.2134,0.214,0.2061,0.2021,0.2066,0.2068,0.207,0.2071,0.2073,0,0.1424,0.1441,0.1465,0.1485,0.1491,0.1528,0.158,0.1584,0.164,0.175,0.1837,0.1762,0.18,0.1874,0.1834,0.1851,0.1784,0.1759,0.1647,0.1671,0.1691,0.1583,0.1464,0.1462,0.1459,0.1457,0,0,0.1409,0.1414,0.1426,0.1416,0.1427,0.1415,0.1429,0.1453,0.1506,0.1523,0.1546,0.1694,0.1816,0.1595,0.1603,0.1524,0.1564,0.1464,0.1964,0.1858,0.1873,0.1939,0.1805,0,0,0,0,0]},{"header":{"parameterUnit":"m.s-1","parameterCategory":2,"la1":30.2991,"la2":30.254,"lo1":-89.0895,"lo2":-89.0444,"dy":0.0017,"dx":0.0017,"nx":28,"ny":28,"refTime":"2024-05-05T03:00:00:Z","depth":"2","parameterNumber":3,"parameterNumberName":"V-component_of_CURRENTS"},"data":[0,0,0,0,0,0,0,0,0,0,0,0,0,0,0,0,0,0,0,0,0,0,0,0,0,0,0,0,0,0,0,0,0,0,0,0,0,0,0,0,0,0,0,0,0,0,0,0,0,0,0,0,0,0,0,0,0,0,-0.0189,-0.0189,0,-0.0219,-0.022,-0.022,-0.0243,-0.0243,-0.0243,-0.0243,-0.0277,-0.0278,-0.0279,0,0,0,0,0,0,0,0,0,0,0,0,0,-0.0148,-0.0149,-0.0188,-0.0189,-0.0189,-0.0219,-0.022,-0.022,-0.0243,-0.0243,-0.0243,-0.0243,-0.0277,-0.0278,-0.0279,0,0,0,0,0,0,0,0,0,0,0,0,0,-0.0171,-0.0149,-0.0188,-0.0204,-0.0206,-0.0219,-0.022,-0.022,-0.0243,-0.0243,-0.0243,-0.0243,-0.0277,-0.0278,-0.0279,-0.0279,0,0,-0.0282,-0.0283,0,0,0,0,0,0,0,0,-0.0169,-0.0172,-0.0202,-0.0203,-0.0205,-0.0228,-0.0218,-0.024,-0.0242,-0.0228,-0.0243,-0.0244,-0.0261,-0.0263,-0.0268,-0.0281,-0.0282,-0.0282,-0.0283,-0.0283,-0.0284,0,0,0,0,0,0,0,-0.0168,-0.0171,-0.02,-0.0202,-0.0204,-0.021,-0.0213,-0.0222,-0.0242,-0.023,-0.0231,-0.0235,-0.0262,-0.0267,-0.0269,-0.0283,-0.0282,-0.0283,-0.0284,-0.0284,-0.0294,-0.0293,0,0,0,0,0,0,-0.0164,-0.0169,-0.02,-0.0201,-0.0188,-0.021,-0.0214,-0.022,-0.0242,-0.0246,-0.0235,-0.0236,-0.0265,-0.0268,-0.027,-0.0267,-0.0283,-0.0284,-0.0285,-0.0294,-0.0293,-0.0293,0,0,0,0,0,0,-0.0163,-0.0167,-0.0198,-0.0186,-0.0191,-0.0211,-0.0217,-0.022,-0.0222,-0.0246,-0.025,-0.0233,-0.0265,-0.0269,-0.0276,-0.0269,-0.0285,-0.0286,-0.0294,-0.0294,-0.0293,-0.0264,0,0,0,0,0,0,-0.0162,-0.0166,-0.0166,-0.0186,-0.0191,-0.0198,-0.0217,-0.0221,-0.0224,-0.0226,-0.0246,-0.0249,-0.0266,-0.0275,-0.0277,-0.0271,-0.0287,-0.0295,-0.0294,-0.0293,-0.0266,-0.0263,-0.026,0,0,0,0,0,-0.0161,-0.0157,-0.0166,-0.0169,-0.0191,-0.0198,-0.02,-0.0216,-0.0224,-0.0219,-0.0236,-0.0249,-0.0272,-0.0275,-0.0278,-0.0272,-0.0295,-0.0294,-0.0293,-0.0267,-0.0263,-0.026,0,0,0,0,0,0,-0.0136,-0.016,-0.0169,-0.0173,-0.0181,-0.0202,-0.02,-0.021,-0.022,-0.0223,-0.0245,-0.025,-0.0255,-0.0265,-0.0268,-0.0272,-0.0285,-0.0284,-0.0263,-0.026,-0.0257,-0.0247,-0.0288,0,0,0,0,0,-0.0132,-0.0137,-0.0156,-0.0157,-0.0161,-0.0179,-0.0183,-0.0194,-0.0207,-0.0212,-0.0225,-0.024,-0.0254,-0.0258,-0.0271,-0.0271,-0.0281,-0.0268,-0.0265,-0.0263,-0.0257,-0.0269,-0.0267,-0.029,-0.029,-0.029,0,0,-0.0124,-0.0136,-0.014,-0.0153,-0.0162,-0.0162,-0.0182,-0.0185,-0.0185,-0.0214,-0.0214,-0.0232,-0.0252,-0.0256,-0.0258,-0.0263,-0.0261,-0.0262,-0.026,-0.0255,-0.0268,-0.0266,-0.0264,-0.0289,-0.029,-0.029,0,0,-0.0107,-0.012,-0.0117,-0.0123,-0.0135,-0.0146,-0.0144,-0.016,-0.0166,-0.0171,-0.0193,-0.0205,-0.0221,-0.0234,-0.0244,-0.0231,-0.0248,-0.0233,-0.021,-0.0222,-0.022,-0.0218,-0.0225,-0.0225,-0.023,-0.023,-0.023,0,-0.0093,-0.0096,-0.0115,-0.0111,-0.0112,-0.0135,-0.0127,-0.0137,-0.0152,-0.0152,-0.0167,-0.0192,-0.0211,-0.0216,-0.0215,-0.0225,-0.0232,-0.0222,-0.0218,-0.0217,-0.0216,-0.0223,-0.0223,-0.0228,-0.0228,-0.0229,-0.0229,0,-0.0076,-0.0076,-0.0072,-0.0078,-0.008,-0.0077,-0.0093,-0.0092,-0.0105,-0.0117,-0.0125,-0.0155,-0.0167,-0.0177,-0.0195,-0.0193,-0.0201,-0.0216,-0.0226,-0.0212,-0.022,-0.0221,-0.0226,-0.0227,-0.0227,-0.0227,0,0,-0.005,-0.0058,-0.0057,-0.0049,-0.0062,-0.0058,-0.0057,-0.0058,-0.0046,-0.0074,-0.0065,-0.01,-0.0115,-0.0127,-0.015,-0.0164,-0.0168,-0.0183,-0.0184,-0.0188,-0.0189,-0.0214,-0.0216,-0.0182,-0.0182,-0.0182,-0.0196,0,-0.0027,-0.0013,-0.0026,-0.0005,0.0005,-0.0012,-0.0003,-0.0008,-0.0017,-0.0012,-0.0051,-0.0054,-0.0096,-0.0098,-0.012,-0.0151,-0.0167,-0.0162,-0.0203,-0.0203,-0.0227,-0.0217,-0.0196,-0.0209,-0.0197,-0.0197,-0.0197,0,-0.0005,0.0004,0.0023,0.004,0.0044,0.0051,0.0068,0.0072,0.0064,0.0058,0.0038,0.0013,-0.0012,-0.005,-0.0102,-0.0096,-0.0138,-0.017,-0.0172,-0.0204,-0.0229,-0.0222,-0.021,-0.0198,-0.0197,-0.0197,-0.0197,0,0.0028,0.0042,0.006,0.0063,0.0074,0.0085,0.0091,0.0094,0.0113,0.0102,0.0119,0.0074,0.0067,0.0002,-0.0066,-0.0081,-0.0122,-0.0152,-0.0216,-0.0218,-0.0213,-0.0215,-0.0191,-0.0191,-0.0191,-0.0191,-0.0191,0,0.0059,0.0078,0.0078,0.0091,0.013,0.012,0.016,0.0161,0.0175,0.0216,0.0158,0.0187,0.0081,0.0045,-0.0037,-0.012,-0.0101,-0.0208,-0.0224,-0.0202,-0.0203,-0.0205,-0.0206,-0.0192,-0.0192,-0.0192,-0.0191,0,0.0095,0.009,0.0119,0.0134,0.0145,0.0171,0.0208,0.0243,0.0245,0.0298,0.03,0.0277,0.0229,0.0122,0.0029,-0.0069,-0.0155,-0.0191,-0.0158,-0.017,-0.0252,-0.0252,-0.0269,-0.027,-0.0271,-0.0272,-0.0272,0,0.0116,0.0131,0.0155,0.0178,0.0187,0.0223,0.026,0.0275,0.0318,0.0368,0.0405,0.0375,0.0365,0.0205,0.0037,-0.0119,-0.0141,-0.0213,-0.0251,-0.0247,-0.026,-0.0259,-0.0257,-0.0228,-0.0228,-0.0228,-0.0228,0,0.0161,0.0163,0.0186,0.023,0.0267,0.0318,0.0368,0.0411,0.0448,0.0497,0.0563,0.0558,0.0415,0.0259,0.0028,-0.0076,-0.0193,-0.0223,-0.0213,-0.0218,-0.0211,-0.0224,-0.0223,-0.023,-0.0229,-0.0229,-0.0229,-0.0229,0.0197,0.0221,0.0244,0.029,0.0338,0.0403,0.0448,0.0512,0.0586,0.0657,0.0667,0.0665,0.0485,0.0191,0.0001,-0.02,-0.0199,-0.0279,-0.0277,-0.0275,-0.0274,-0.027,-0.0298,-0.0299,-0.0299,-0.0299,-0.0299,0,0.0239,0.0263,0.0306,0.0355,0.0412,0.0433,0.0521,0.0561,0.065,0.0725,0.0768,0.0611,0.0433,0.0233,-0.0071,-0.0266,-0.0273,-0.032,-0.0286,-0.0283,-0.0281,-0.0281,-0.0307,-0.0307,-0.0308,-0.0308,0,0,0.0263,0.0304,0.032,0.0406,0.045,0.0528,0.0577,0.064,0.0697,0.0748,0.0766,0.0748,0.0506,0.0281,0.003,-0.0138,-0.0168,-0.017,-0.0143,-0.0071,-0.0066,-0.0236,-0.0229,0,0,0,0,0]}],[{"header":{"parameterUnit":"m.s-1","parameterCategory":2,"la1":30.2991,"la2":30.254,"lo1":-89.0895,"lo2":-89.0444,"dy":0.0017,"dx":0.0017,"nx":28,"ny":28,"refTime":"2024-05-05T03:00:00:Z","depth":"4","parameterNumber":2,"parameterNumberName":"U-component_of_CURRENTS"},"data":[0,0,0,0,0,0,0,0,0,0,0,0,0,0,0,0,0,0,0,0,0,0,0,0,0,0,0,0,0,0,0,0,0,0,0,0,0,0,0,0,0,0,0,0,0,0,0,0,0,0,0,0,0,0,0,0,0,0,0.0883,0.0884,0,0.0918,0.0918,0.0918,0.095,0.095,0.0951,0.0951,0.1016,0.1017,0.1018,0,0,0,0,0,0,0,0,0,0,0,0,0,0.0834,0.0834,0.0883,0.0884,0.0884,0.0918,0.0918,0.0918,0.095,0.095,0.0951,0.0952,0.1016,0.1017,0.1019,0,0,0,0,0,0,0,0,0,0,0,0,0,0.0859,0.0835,0.0883,0.0905,0.0908,0.0918,0.0918,0.0918,0.095,0.095,0.0951,0.0952,0.1015,0.1017,0.1019,0.1014,0,0,0.1024,0.1025,0,0,0,0,0,0,0,0,0.0857,0.086,0.0901,0.0904,0.0906,0.0932,0.0924,0.0952,0.0949,0.0932,0.0951,0.0952,0.0991,0.0995,0.0997,0.1017,0.102,0.1025,0.1026,0.1026,0.1027,0,0,0,0,0,0,0,0.0856,0.0859,0.0895,0.0902,0.0905,0.091,0.0914,0.0929,0.0956,0.0934,0.0936,0.0942,0.0993,0.0995,0.0999,0.1021,0.1024,0.1026,0.1027,0.1028,0.1116,0.1117,0,0,0,0,0,0,0.0854,0.0857,0.0894,0.0896,0.0885,0.091,0.0915,0.0921,0.0955,0.0961,0.0942,0.0944,0.0991,0.0997,0.1001,0.1068,0.1026,0.1028,0.1029,0.1114,0.1116,0.1117,0,0,0,0,0,0,0.0853,0.0857,0.0893,0.0879,0.0884,0.0911,0.0917,0.0922,0.0948,0.0961,0.0968,0.0967,0.0992,0.0999,0.1037,0.1069,0.1029,0.1031,0.1113,0.1115,0.1117,0.1158,0,0,0,0,0,0,0.0851,0.0857,0.0871,0.0879,0.0885,0.0914,0.0917,0.0922,0.095,0.0954,0.0985,0.099,0.0993,0.1034,0.1039,0.107,0.1032,0.1111,0.1114,0.1116,0.1155,0.1161,0.1166,0,0,0,0,0,0.085,0.0862,0.0871,0.0876,0.09,0.0915,0.0918,0.0938,0.0951,0.0965,0.0989,0.099,0.1053,0.1037,0.1042,0.1075,0.111,0.1113,0.1116,0.1152,0.116,0.1166,0,0,0,0,0,0,0.0854,0.0867,0.0877,0.0895,0.0912,0.0921,0.0939,0.0951,0.0979,0.0993,0.1003,0.101,0.1056,0.1058,0.1041,0.1107,0.1083,0.1087,0.1109,0.1116,0.1121,0.1125,0.1034,0,0,0,0,0,0.0859,0.0872,0.0886,0.0904,0.0913,0.093,0.0944,0.0958,0.0979,0.0993,0.1018,0.1044,0.1066,0.1086,0.1105,0.1139,0.1146,0.1165,0.117,0.1175,0.1182,0.1214,0.1222,0.1126,0.1126,0.1126,0,0,0.0865,0.0877,0.0885,0.0907,0.0921,0.0937,0.0941,0.0969,0.0991,0.0996,0.1045,0.1065,0.1079,0.112,0.1141,0.113,0.1208,0.1178,0.1182,0.1187,0.1217,0.1227,0.1235,0.1128,0.1128,0.1128,0,0,0.0878,0.0896,0.0909,0.0924,0.0952,0.096,0.0974,0.1,0.1023,0.1064,0.1076,0.1116,0.1152,0.1171,0.1182,0.1229,0.1234,0.1241,0.1276,0.1307,0.1315,0.1322,0.1349,0.1358,0.1246,0.1246,0.1246,0,0.0889,0.0905,0.0917,0.0935,0.0952,0.0973,0.0993,0.1014,0.1055,0.1079,0.1088,0.1157,0.1175,0.1218,0.1241,0.1243,0.126,0.1248,0.1314,0.1321,0.1327,0.1353,0.1363,0.1248,0.1248,0.1247,0.1247,0,0.0904,0.0927,0.0938,0.0964,0.0984,0.1007,0.1033,0.1068,0.11,0.1121,0.1184,0.1212,0.1253,0.1269,0.1272,0.1332,0.133,0.1314,0.1295,0.134,0.1364,0.1374,0.1251,0.125,0.125,0.1249,0,0,0.09,0.094,0.0946,0.0967,0.1004,0.1021,0.1063,0.1101,0.1142,0.1185,0.1238,0.1285,0.131,0.1325,0.1342,0.1376,0.1443,0.1375,0.1375,0.1399,0.1518,0.144,0.1442,0.1443,0.1445,0.1446,0.1518,0,0.0911,0.0946,0.0965,0.1005,0.1024,0.1059,0.1095,0.1138,0.1183,0.1241,0.1275,0.1332,0.1327,0.1367,0.1398,0.1436,0.1469,0.1425,0.1474,0.1475,0.1398,0.145,0.1451,0.1525,0.1527,0.1529,0.153,0,0.0914,0.0939,0.0979,0.103,0.1043,0.1076,0.1146,0.1186,0.1257,0.1297,0.1352,0.1381,0.1447,0.1435,0.1512,0.1488,0.1512,0.1531,0.1533,0.1451,0.1414,0.1471,0.1547,0.1545,0.1544,0.1543,0.1542,0,0.0895,0.0947,0.0981,0.0999,0.1059,0.1097,0.1139,0.1209,0.1251,0.1346,0.1389,0.1453,0.1508,0.1541,0.1581,0.156,0.1659,0.1626,0.1574,0.1568,0.1598,0.1589,0.1679,0.1679,0.1679,0.1679,0.1678,0,0.0888,0.0916,0.0983,0.1002,0.1058,0.1105,0.1176,0.123,0.1309,0.136,0.1424,0.1469,0.1542,0.1595,0.1611,0.1625,0.1682,0.1593,0.1586,0.1614,0.1607,0.1605,0.1595,0.1681,0.1681,0.168,0.168,0,0.0859,0.0901,0.0944,0.1019,0.1051,0.1095,0.1188,0.1231,0.1319,0.1392,0.1424,0.1509,0.1582,0.1635,0.1708,0.1664,0.1685,0.1674,0.1719,0.171,0.1565,0.1557,0.1616,0.1614,0.1613,0.1611,0.161,0,0.0843,0.0866,0.0951,0.0984,0.1025,0.1099,0.1143,0.1232,0.1269,0.1396,0.1413,0.1523,0.1571,0.1605,0.1668,0.1702,0.1681,0.1677,0.1603,0.1574,0.1562,0.1556,0.1551,0.1607,0.1607,0.1606,0.1606,0,0.0816,0.0856,0.0893,0.0961,0.1016,0.1067,0.1134,0.1149,0.1249,0.1335,0.1377,0.1422,0.1507,0.1554,0.1606,0.1616,0.1668,0.1658,0.166,0.1591,0.1563,0.1551,0.1548,0.1599,0.16,0.1601,0.1601,0,0.0798,0.0815,0.0873,0.0926,0.0989,0.1015,0.1056,0.1095,0.1142,0.1262,0.1276,0.1391,0.1488,0.1512,0.155,0.157,0.154,0.1477,0.1488,0.1496,0.1424,0.137,0.1352,0,0,0,0,0,0.0775,0.0787,0.0832,0.088,0.0938,0.0978,0.1038,0.1074,0.116,0.1159,0.1213,0.1281,0.135,0.1403,0.1402,0.1509,0.1552,0.1501,0.1486,0.1565,0.1573,0.1499,0,0,0,0,0,0,0.0759,0.0796,0.081,0.0833,0.0859,0.0912,0.0947,0.1003,0.0998,0.1092,0.1131,0.1214,0.1295,0.1349,0.1384,0.1403,0.1369,0.1574,0.1571,0.1561,0.1568,0.1574,0.1501,0,0,0,0,0]},{"header":{"parameterUnit":"m.s-1","parameterCategory":2,"la1":30.2991,"la2":30.254,"lo1":-89.0895,"lo2":-89.0444,"dy":0.0017,"dx":0.0017,"nx":28,"ny":28,"refTime":"2024-05-05T03:00:00:Z","depth":"4","parameterNumber":3,"parameterNumberName":"V-component_of_CURRENTS"},"data":[0,0,0,0,0,0,0,0,0,0,0,0,0,0,0,0,0,0,0,0,0,0,0,0,0,0,0,0,0,0,0,0,0,0,0,0,0,0,0,0,0,0,0,0,0,0,0,0,0,0,0,0,0,0,0,0,0,0,-0.0176,-0.0176,0,-0.0196,-0.0196,-0.0196,-0.0213,-0.0213,-0.0214,-0.0214,-0.0249,-0.025,-0.0251,0,0,0,0,0,0,0,0,0,0,0,0,0,-0.0155,-0.0155,-0.0176,-0.0176,-0.0176,-0.0196,-0.0196,-0.0197,-0.0213,-0.0213,-0.0214,-0.0214,-0.0249,-0.025,-0.0251,0,0,0,0,0,0,0,0,0,0,0,0,0,-0.0169,-0.0155,-0.0176,-0.0187,-0.0188,-0.0196,-0.0196,-0.0197,-0.0213,-0.0213,-0.0214,-0.0214,-0.0249,-0.025,-0.0251,-0.0254,0,0,-0.0255,-0.0255,0,0,0,0,0,0,0,0,-0.0168,-0.0169,-0.0185,-0.0186,-0.0187,-0.0202,-0.0202,-0.0216,-0.0213,-0.0204,-0.0214,-0.0214,-0.0235,-0.0237,-0.024,-0.0256,-0.0257,-0.0255,-0.0256,-0.0256,-0.0256,0,0,0,0,0,0,0,-0.0167,-0.0169,-0.0184,-0.0185,-0.0187,-0.0192,-0.0194,-0.0205,-0.0218,-0.0205,-0.0206,-0.0208,-0.0235,-0.0239,-0.0241,-0.0258,-0.0255,-0.0256,-0.0257,-0.0257,-0.0278,-0.0278,0,0,0,0,0,0,-0.0163,-0.0168,-0.0183,-0.0185,-0.0178,-0.0192,-0.0194,-0.0197,-0.0218,-0.0221,-0.0207,-0.0208,-0.0237,-0.024,-0.0243,-0.0245,-0.0256,-0.0257,-0.0258,-0.0278,-0.0278,-0.0278,0,0,0,0,0,0,-0.0163,-0.0165,-0.0183,-0.0176,-0.0179,-0.0192,-0.0195,-0.0198,-0.0206,-0.022,-0.0223,-0.0213,-0.0237,-0.0241,-0.0253,-0.0247,-0.0258,-0.0259,-0.0278,-0.0278,-0.0278,-0.0252,0,0,0,0,0,0,-0.0162,-0.0164,-0.0168,-0.0176,-0.0179,-0.0186,-0.0195,-0.0198,-0.0206,-0.0207,-0.0226,-0.0229,-0.0238,-0.0251,-0.0254,-0.0249,-0.026,-0.0279,-0.0278,-0.0278,-0.0253,-0.0251,-0.0249,0,0,0,0,0,-0.0161,-0.0161,-0.0168,-0.017,-0.0183,-0.0186,-0.0188,-0.0198,-0.0206,-0.0207,-0.022,-0.0229,-0.0251,-0.0252,-0.0255,-0.025,-0.0279,-0.0278,-0.0278,-0.0254,-0.0251,-0.0249,0,0,0,0,0,0,-0.0153,-0.0163,-0.0171,-0.0174,-0.018,-0.0189,-0.0192,-0.0199,-0.021,-0.0215,-0.0229,-0.0233,-0.0241,-0.025,-0.025,-0.0256,-0.0265,-0.0266,-0.0246,-0.0243,-0.0241,-0.0233,-0.0261,0,0,0,0,0,-0.0153,-0.0156,-0.0166,-0.0169,-0.0173,-0.0184,-0.0188,-0.0195,-0.0204,-0.0209,-0.0223,-0.0235,-0.0241,-0.0246,-0.0257,-0.026,-0.027,-0.0259,-0.0257,-0.0255,-0.0251,-0.0259,-0.0257,-0.0277,-0.0277,-0.0277,0,0,-0.015,-0.0156,-0.0158,-0.0167,-0.0174,-0.0174,-0.0187,-0.0193,-0.0188,-0.0212,-0.0216,-0.0232,-0.0242,-0.0245,-0.0249,-0.0252,-0.0256,-0.0254,-0.0253,-0.0249,-0.0259,-0.0257,-0.0255,-0.0276,-0.0276,-0.0276,0,0,-0.0141,-0.0152,-0.0152,-0.0156,-0.0166,-0.017,-0.0171,-0.0183,-0.0187,-0.0193,-0.0206,-0.0217,-0.0232,-0.0234,-0.0237,-0.023,-0.0248,-0.0236,-0.0216,-0.0224,-0.0223,-0.0222,-0.0237,-0.0237,-0.0232,-0.0232,-0.0232,0,-0.0137,-0.014,-0.0151,-0.0151,-0.0152,-0.0166,-0.0162,-0.0164,-0.0178,-0.0177,-0.0192,-0.0211,-0.0223,-0.0217,-0.0215,-0.0225,-0.0237,-0.0224,-0.0221,-0.022,-0.0219,-0.0235,-0.0236,-0.023,-0.0231,-0.0231,-0.0231,0,-0.0128,-0.0132,-0.0131,-0.0134,-0.0134,-0.0135,-0.0137,-0.0138,-0.0147,-0.0153,-0.0159,-0.0179,-0.0188,-0.0194,-0.0203,-0.0199,-0.0213,-0.022,-0.0226,-0.0216,-0.0233,-0.0234,-0.0229,-0.0229,-0.0229,-0.023,0,0,-0.0116,-0.0123,-0.0124,-0.0121,-0.0127,-0.0122,-0.0112,-0.0106,-0.0096,-0.0117,-0.0111,-0.0127,-0.0145,-0.015,-0.0165,-0.0173,-0.0181,-0.0193,-0.0194,-0.0205,-0.0207,-0.0214,-0.0216,-0.019,-0.0189,-0.0189,-0.0223,0,-0.0107,-0.0102,-0.0106,-0.0094,-0.0091,-0.0094,-0.0079,-0.0074,-0.0077,-0.0076,-0.0095,-0.01,-0.0124,-0.0132,-0.0143,-0.017,-0.0182,-0.0172,-0.0217,-0.0219,-0.0224,-0.0217,-0.0189,-0.0224,-0.0224,-0.0225,-0.0225,0,-0.0098,-0.0095,-0.0086,-0.0072,-0.007,-0.006,-0.0038,-0.0028,-0.0025,-0.003,-0.0041,-0.0061,-0.0073,-0.01,-0.0138,-0.0132,-0.0167,-0.0192,-0.0194,-0.0209,-0.0227,-0.0236,-0.0227,-0.0227,-0.0227,-0.0226,-0.0226,0,-0.0086,-0.0078,-0.0069,-0.0067,-0.0055,-0.0041,-0.0029,-0.0017,0.0001,-0.0004,0.0001,-0.0024,-0.0034,-0.0077,-0.0131,-0.0135,-0.0179,-0.0191,-0.0231,-0.0233,-0.0228,-0.0229,-0.022,-0.022,-0.022,-0.022,-0.022,0,-0.0076,-0.0067,-0.0062,-0.0058,-0.0029,-0.0027,0.0003,0.0014,0.0027,0.0052,0.0023,0.0032,-0.0029,-0.0061,-0.0119,-0.0176,-0.017,-0.0226,-0.0239,-0.0217,-0.0217,-0.0229,-0.023,-0.0221,-0.0221,-0.0221,-0.0221,0,-0.0067,-0.0068,-0.0053,-0.0037,-0.0026,-0.0006,0.0029,0.0051,0.006,0.009,0.0091,0.0075,0.0033,-0.0034,-0.0104,-0.0153,-0.0213,-0.0239,-0.0213,-0.0224,-0.0266,-0.0265,-0.0283,-0.0283,-0.0284,-0.0284,-0.0284,0,-0.0063,-0.0059,-0.0036,-0.0018,-0.0011,0.0019,0.0045,0.0065,0.0091,0.0122,0.0138,0.011,0.0088,-0.0006,-0.0092,-0.0203,-0.0222,-0.0257,-0.0261,-0.026,-0.0271,-0.0269,-0.0268,-0.0285,-0.0285,-0.0285,-0.0285,0,-0.0057,-0.0053,-0.0038,-0.0001,0.0027,0.0065,0.0101,0.0125,0.0155,0.0162,0.0191,0.0146,0.0096,0.0008,-0.0083,-0.0164,-0.0235,-0.0262,-0.0262,-0.0265,-0.0263,-0.0273,-0.0271,-0.0286,-0.0286,-0.0286,-0.0286,0,-0.0049,-0.0038,-0.0019,0.002,0.0058,0.0106,0.0123,0.0161,0.0189,0.0222,0.0229,0.0179,0.0148,0.0028,-0.0054,-0.0137,-0.0161,-0.0188,-0.0193,-0.0192,-0.0161,-0.0145,-0.0139,0,0,0,0,0,-0.0041,-0.0028,0.0003,0.0047,0.0088,0.0115,0.0162,0.0176,0.0203,0.0234,0.0237,0.0194,0.0091,0.0045,-0.0038,-0.0085,-0.0195,-0.0187,-0.0233,-0.0294,-0.0292,-0.0273,0,0,0,0,0,0,-0.0036,-0.0015,0.0001,0.0065,0.01,0.0151,0.0183,0.0202,0.022,0.0237,0.0186,0.0168,0.0062,0.0141,-0.004,-0.0067,-0.0109,-0.0237,-0.0239,-0.0295,-0.0293,-0.0292,-0.0272,0,0,0,0,0]}]]